Location: *
(52.2090°N, 4.1550°W)
Time: 01:16:05
(UTC+00:00)

Spot 4 - Pass Details

Date: 19 July 2019
Orbit: 705 x 723 km, 98.3° (Epoch: 20 August)

Event Time Altitude Azimuth Distance (km) Brightness Sun altitude
Exits shadow 22:28:03 18° 141° (SE) 1,689 5.2 -12.8°
Maximum altitude 22:31:25 55° 69° (ENE) 855 4.2 -13.1°
Drops below altitude 10° 22:36:05 10° 352° (N) 2,190 7.6 -13.4°
Sets 22:38:23 0° 349° (NNW) 3,112 8.8 -13.5°
